Weather History for Tampa, FL

Change the Weather History Date:

Friday, January 2, 2015

  Actual Average Record
Temperature  
Mean Temperature 71 °F 61 °F  
Max Temperature 79 °F 70 °F 83 °F (1947)
Min Temperature 62 °F 52 °F 28 °F (1898)
Degree Days  
Heating Degree Days 0 6  
Month to date heating degree days 0 12  
Since 1 July heating degree days 177 195  
Cooling Degree Days 6 2  
Month to date cooling degree days 8 4  
Year to date cooling degree days 8 4  
Growing Degree Days 21 (Base 50)    
Moisture  
Dew Point 64 °F    
Average Humidity 84    
Maximum Humidity 100    
Minimum Humidity 67    
Precipitation  
Precipitation T in 0.06 in 1.82 in (1959)
Month to date precipitation T 0.13  
Year to date precipitation T 0.13  
Sea Level Pressure  
Sea Level Pressure 30.22 in    
Wind  
Wind Speed 5 mph (ENE)    
Max Wind Speed 8 mph    
Max Gust Speed 14 mph    
Visibility 5 miles    
Events Fog    
T = Trace of Precipitation, MM = Missing Value Source: NWS Daily Summary

Daily Weather History Graph

Daily Weather History Graph

Search for Another Location

Airport:

Trip Planner

Search our weather history database for the weather conditions in past years. The results will help you decide how hot, cold, wet, or windy it might be!

Date:

Astronomy

Jan. 02, 2015 Rise Set
Actual Time 7:21 AM EST 5:46 PM EST
Civil Twilight 6:56 AM EST 6:12 PM EST
Nautical Twilight 6:26 AM EST 6:41 PM EST
Astronomical Twilight 5:58 AM EST 7:10 PM EST
Moon 3:58 PM EST (1/2) 4:54 AM EST (1/2)
Length of Visible Light 11h 16m
Length of Day
10h 24m
Waxing Gibbous, 94% of the Moon is Illuminated
Jan 2
Waxing Gibbous
Jan 4
Full
Jan 13
Last Quarter
Jan 20
New
Jan 26
First Quarter

Hourly Weather History & Observations

Time (EST) Temp. Dew Point Humidity Pressure Visibility Wind Dir Wind Speed Gust Speed Precip Events Conditions
12:15 AM 64.9 °F 62.1 °F 90% 30.21 in 10.0 mi ENE 5.8 mph - N/A   Overcast
12:31 AM 64.9 °F 62.1 °F 90% 30.21 in 3.0 mi NE 4.6 mph - N/A   Overcast
12:53 AM 64.9 °F 62.1 °F 90% 30.21 in 3.0 mi ENE 4.6 mph - N/A   Overcast
1:02 AM 64.9 °F 63.0 °F 93% 30.21 in 1.5 mi NE 4.6 mph - N/A   Overcast
1:33 AM 64.9 °F 62.1 °F 90% 30.21 in 0.5 mi ENE 5.8 mph - N/A   Overcast
1:53 AM 64.0 °F 62.1 °F 93% 30.20 in 0.5 mi NE 6.9 mph - N/A   Overcast
2:53 AM 64.0 °F 63.0 °F 96% 30.19 in 0.5 mi NE 3.5 mph - N/A   Overcast
3:53 AM 63.0 °F 62.1 °F 97% 30.20 in 0.5 mi NE 4.6 mph - N/A   Mist
4:10 AM 63.0 °F 62.1 °F 97% 30.21 in 0.2 mi ENE 4.6 mph - N/A Fog Fog
4:15 AM 63.0 °F 62.1 °F 97% 30.20 in 0.5 mi ENE 4.6 mph - N/A Fog Fog
4:53 AM 63.0 °F 62.1 °F 97% 30.20 in 0.5 mi ENE 4.6 mph - N/A   Mist
5:53 AM 63.0 °F 61.0 °F 93% 30.21 in 0.5 mi ENE 3.5 mph - N/A   Overcast
6:53 AM 63.0 °F 61.0 °F 93% 30.22 in 0.2 mi ENE 5.8 mph - N/A Fog Fog
7:53 AM 63.0 °F 61.0 °F 93% 30.25 in 0.2 mi NE 5.8 mph - N/A Fog Fog
8:10 AM 63.0 °F 61.0 °F 93% 30.25 in 0.2 mi Variable 4.6 mph - N/A Fog Fog
8:53 AM 63.0 °F 61.0 °F 93% 30.27 in 0.2 mi East 6.9 mph - N/A   Overcast
9:26 AM 64.0 °F 62.1 °F 93% 30.28 in 1.0 mi NE 4.6 mph - N/A   Overcast
9:53 AM 64.4 °F 62.6 °F 94% 30.28 in 1.0 mi NE 5.8 mph - N/A   Overcast
10:53 AM 68.0 °F 63.0 °F 84% 30.27 in 1.0 mi NNE 4.6 mph - N/A   Haze
10:55 AM 68.0 °F 62.1 °F 81% 30.27 in 3.0 mi NE 5.8 mph - N/A   Haze
11:14 AM 69.1 °F 63.0 °F 81% 30.26 in 6.0 mi NE 4.6 mph - N/A   Haze
11:53 AM 71.1 °F 64.0 °F 78% 30.24 in 6.0 mi NE 5.8 mph - N/A   Haze
12:53 PM 73.0 °F 64.9 °F 76% 30.22 in 10.0 mi Variable 3.5 mph - N/A   Mostly Cloudy
1:53 PM 75.9 °F 66.0 °F 71% 30.19 in 10.0 mi Variable 4.6 mph - N/A   Mostly Cloudy
2:53 PM 78.1 °F 66.0 °F 66% 30.18 in 10.0 mi Variable 3.5 mph - N/A   Overcast
3:53 PM 79.0 °F 66.9 °F 66% 30.17 in 10.0 mi Calm Calm - N/A   Overcast
4:53 PM 79.0 °F 66.9 °F 66% 30.19 in 10.0 mi Calm Calm - N/A   Overcast
5:53 PM 75.9 °F 66.9 °F 74% 30.19 in 10.0 mi NE 4.6 mph - N/A   Mostly Cloudy
6:53 PM 73.9 °F 66.0 °F 76% 30.20 in 10.0 mi ENE 4.6 mph - N/A   Scattered Clouds
7:53 PM 73.0 °F 66.0 °F 79% 30.21 in 10.0 mi Variable 4.6 mph - N/A   Partly Cloudy
8:53 PM 73.0 °F 66.0 °F 79% 30.21 in 10.0 mi ENE 4.6 mph - N/A   Mostly Cloudy
9:53 PM 73.0 °F 66.9 °F 81% 30.21 in 10.0 mi East 4.6 mph - 0.00 in   Mostly Cloudy
10:53 PM 72.0 °F 66.9 °F 84% 30.20 in 10.0 mi East 5.8 mph - N/A   Mostly Cloudy
11:53 PM 72.0 °F 66.9 °F 84% 30.20 in 10.0 mi East 5.8 mph - N/A   Mostly Cloudy